sat.trackr.live / text

‹ back to catalog

STARLINK-4016

NORAD 52603 · 2022-052F

PAYLOAD ACTIVE UNKNOWN

§ Identity

Operator
Country
US
Launch date
2022-05-14
Launch site
AFETR
Launch vehicle
Mass (kg)
RCS (m²)

Purposes: comms

External: N2YO · Heavens-Above · Gunter

§ Orbital elements

Epoch: 2026-09-20T03:59:12.878592Z

Period
94.01 min
Inclination
53.1584°
Eccentricity
0.0001245
Mean motion
15.31704860 rev/d
Perigee alt
469.9 km
Apogee alt
471.6 km
Semi-major
6,848.9 km
B*
1.1029e-5
RAAN
110.3939°
Arg perigee
80.1448°
Mean anomaly
279.9694°
Rev number
24,123

§ Raw data

STARLINK-40161 52603U 22052F   26263.16612128 -.00000023  00000+0  11029-4 0  99952 52603  53.1584 110.3939 0001245  80.1448 279.9694 15.31704860241230

JSON: /api/v1/satellites/52603 · /tle

For live sub-satellite position, see the globe view (requires WebGL).

§ Visibility from observer

Set your observer location to see the next 7 days of passes ≥ 10°. The values pass through the URL so the page stays shareable.

No JS? Fill the form by hand. The geolocation button needs JavaScript.